Left ArrowRight Arrow

44.79719, -106.95618

Hourly Observations for January 29, 2016

Temp ( °F °C ) Dew Point ( °F °C ) Humidity (%) Winds ( mph kmh ) Pressure ( in mb ) Visibility ( mi km ) Precip ( " mm )
12:53 am 00:53 Cloudy 35 1.7 28 -2.2 76 76 NNW 6 9 29.64 1004 N/A 0.00 0.00
1:53 am 01:53 Cloudy 41 5 29 -1.7 62 62 NW 5 7 29.66 1004 N/A 0.00 0.03
2:53 am 02:53 Cloudy 42 5.6 27 -2.8 55 55 NNW 10 17 29.68 1005 N/A 0.00 0.03
3:53 am 03:53 Cloudy with Light Rain 40 4.4 32 0 73 73 NNW 20 31 29.73 1007 N/A 0.03 0.76
4:53 am 04:53 Cloudy 40 4.4 32 0 73 73 NNW 9 15 29.77 1008 N/A 0.00 0.03
5:53 am 05:53 Clear 35 1.7 30 -1.1 82 82 Calm 29.77 1008 N/A 0.00 0.00
6:53 am 06:53 Clear 34 1.1 28 -2.2 79 79 S 5 7 29.82 1010 N/A 0.00 0.00
7:53 am 07:53 Sunny 35 1.7 28 -2.2 76 76 Calm 29.85 1011 N/A 0.00 0.00
7:55 am 07:55 Mostly Sunny 39 4 27 -3 61 61 Calm 29.80 1009 25 40 0.00 0.00
8:53 am 08:53 Sunny 37 2.8 30 -1.1 76 76 SW 5 7 29.88 1012 N/A 0.00 0.00
8:56 am 08:56 Mostly Sunny 41 5 27 -3 57 57 NNW 3 6 29.83 1010 25 40 0.00 0.00
9:53 am 09:53 Sunny 42 5.6 27 -2.8 55 55 Calm 29.85 1011 N/A 0.00 0.00
10:53 am 10:53 Sunny 46 7.8 27 -2.8 47 47 Calm 29.83 1010 N/A 0.00 0.00
10:55 am 10:55 Mostly Sunny 45 7 23 -5 42 42 Calm 29.80 1009 25 40 0.00 0.00
11:53 am 11:53 Sunny 46 7.8 26 -3.3 46 46 VRB 3 6 29.81 1010 N/A 0.00 0.00
11:55 am 11:55 Mostly Sunny 46 8 21 -6 37 37 Calm 29.74 1007 25 40 0.00 0.00
12:53 pm 12:53 Sunny 46 7.8 25 -3.9 44 44 Calm 29.77 1008 N/A 0.00 0.00
12:56 pm 12:56 Mostly Cloudy 46 8 21 -6 37 37 W 3 6 29.71 1006 25 40 0.00 0.00
1:53 pm 13:53 Sunny 46 7.8 27 -2.8 47 47 SE 7 11 29.67 1005 N/A 0.00 0.00
2:52 pm 14:52 Partly Cloudy 46 8 25 -4 43 43 SSW 8 13 29.53 1000 25 40 0.00 0.00
2:53 pm 14:53 Sunny 46 7.8 28 -2.2 50 50 ESE 13 20 29.61 1003 N/A 0.00 0.00
3:53 pm 15:53 Sunny 43 6.1 28 -2.2 56 56 SE 8 13 29.65 1004 N/A 0.00 0.00
3:59 pm 15:59 Partly Cloudy 45 7 27 -3 49 49 Calm 29.59 1002 25 40 0.00 0.00
4:45 pm 16:45 Partly Cloudy 43 6 25 -4 49 49 SSW 9 15 29.56 1001 25 40 0.00 0.00
4:53 pm 16:53 Sunny 41 5 27 -3 57 57 SE 8 13 29.62 1003 N/A 0.00 0.00
5:53 pm 17:53 Partly Cloudy 39 3.9 28 -2.2 65 65 W 8 13 29.67 1005 N/A 0.00 0.00
5:56 pm 17:56 Cloudy 41 5 27 -3 57 57 W 5 7 29.62 1003 15 24 0.00 0.00
6:53 pm 18:53 Mostly Cloudy 38 3.3 29 -1.7 70 70 SSW 6 9 29.63 1004 N/A 0.00 0.00
7:52 pm 19:52 Cloudy 39 4 27 -3 61 61 SW 3 6 29.56 1001 15 24 0.00 0.00
7:53 pm 19:53 Clear 35 1.7 29 -1.7 78 78 SSW 3 6 29.59 1002 N/A 0.00 0.00
8:53 pm 20:53 Clear 35 1.7 29 -1.7 78 78 WNW 5 7 29.58 1002 N/A 0.00 0.00
9:53 pm 21:53 Mostly Cloudy 33 0.6 28 -2.2 82 82 N 3 6 29.57 1001 N/A 0.00 0.00
10:53 pm 22:53 Cloudy 32 0 28 -2.2 85 85 Calm 29.53 1000 N/A 0.00 0.00
11:53 pm 23:53 Partly Cloudy 32 0 28 -2.2 85 85 SW 6 9 29.51 999 N/A 0.00 0.00

Powered by Vaisala Xweather